カタログに戻る

NOAA 16 DEB

運用中SSO
NORAD 42349·DEBRIS·🇺🇸 United States

打ち上げ Sep 21, 2000 から Vandenberg Space Force Base

Loading…

次のパス (今後24時間)

TLE

最新Source: Space-Track

元期: Sep 14, 2026, 09:28 UTC

1 42349U 00055QR  26257.39495194  .00001887  00000-0  81343-3 0  9994
2 42349  98.6609 316.4981 0009700 191.3214 168.7749 14.25701649539920

AllMySatでNOAA 16 DEBをリアルタイム追跡

Download on the App Store